This demonstration page uses our WeatherBlox Daily Observations layout. Learn more.

Left ArrowRight Arrow

Hourly Observations for August 27, 2021

Temp ( °F °C ) Dew Point ( °F °C ) Humidity (%) Winds ( mph kmh ) Pressure ( in mb ) Visibility ( mi km ) Precip ( " mm )
12:15 am 00:15 Clear 74 23.2 62 16.6 67 67 Calm 29.80 1009 10 16 0.00 0.00
12:35 am 00:35 Clear 72 22 63 17 73 73 S 5 7 29.80 1009 10 16 0.00 0.00
12:55 am 00:55 Clear 69 20.7 63 17.4 81 81 SE 5 7 29.80 1009 10 16 0.00 0.00
1:15 am 01:15 Clear 69 20.7 63 17.4 81 81 S 5 7 29.81 1010 10 16 0.00 0.00
1:35 am 01:35 Clear 68 20.2 64 17.5 85 85 SSE 7 11 29.81 1009 10 16 0.00 0.00
1:55 am 01:55 Clear 70 21.1 63 17 78 78 SSE 9 15 29.79 1009 10 16 0.00 0.00
2:15 am 02:15 Clear 70 21 63 17 78 78 SSE 6 9 29.80 1009 10 16 0.00 0.00
2:35 am 02:35 Clear 72 22 62 16.8 72 72 S 9 15 29.79 1009 10 16 0.00 0.00
2:55 am 02:55 Clear 73 22.6 62 16.8 70 70 S 10 17 29.79 1009 10 16 0.00 0.00
3:15 am 03:15 Clear 72 22.2 63 17 73 73 S 10 17 29.77 1008 10 16 0.00 0.00
3:35 am 03:35 Clear 73 22.6 63 17.3 72 72 S 12 19 29.76 1008 10 16 0.00 0.00
3:55 am 03:55 Clear 74 23.2 63 17.3 70 70 S 13 20 29.75 1008 10 16 0.00 0.00
4:15 am 04:15 Clear 75 24 63 17.2 66 66 S 12 19 29.75 1007 10 16 0.00 0.00
4:35 am 04:35 Clear 75 24.1 63 17.3 66 66 SSW 14 22 29.76 1008 10 16 0.00 0.00
4:55 am 04:55 Clear with Drizzle 74 23.6 64 17.5 69 69 SSW 12 19 29.76 1008 10 16 0.00 0.00
5:15 am 05:15 Clear 76 24.4 63 17.3 65 65 SSW 16 26 29.75 1008 10 16 0.00 0.00
5:35 am 05:35 Clear 76 24.5 63 17.3 64 64 SSW 16 26 29.74 1007 10 16 0.00 0.00
5:55 am 05:55 Clear 74 23.6 64 17.6 69 69 SSW 14 22 29.75 1007 10 16 0.00 0.00
6:15 am 06:15 Clear 74 23.4 64 17.6 70 70 S 10 17 29.74 1007 10 16 0.00 0.00
6:35 am 06:35 Clear 73 23 64 17.6 72 72 S 10 17 29.74 1007 10 16 0.00 0.00
6:55 am 06:55 Clear 72 22.3 64 17.6 75 75 S 10 17 29.75 1007 10 16 0.00 0.00
7:15 am 07:15 Sunny 72 22.2 64 17.7 76 76 SSW 10 17 29.75 1007 10 16 0.00 0.00
7:35 am 07:35 Sunny 72 22.2 64 17.7 76 76 S 14 22 29.75 1007 10 16 0.00 0.00
7:55 am 07:55 Sunny 73 22.7 64 17.9 74 74 SSW 13 20 29.76 1008 10 16 0.00 0.00
8:15 am 08:15 Sunny 73 22.6 64 17.9 75 75 SW 12 19 29.77 1008 10 16 0.00 0.00
8:35 am 08:35 Sunny 73 22.9 64 18 74 74 SW 9 15 29.77 1008 10 16 0.00 0.00
8:55 am 08:55 Sunny 75 23.7 65 18.4 72 72 SW 9 15 29.78 1008 10 16 0.00 0.00
9:15 am 09:15 Sunny 75 24 65 18.1 70 70 SW 8 13 29.78 1008 10 16 0.00 0.00
9:35 am 09:35 Sunny 76 24.4 65 18.6 70 70 SSW 8 13 29.77 1008 10 16 0.00 0.00
9:55 am 09:55 Sunny 76 24.6 65 18.6 69 69 Calm 29.77 1008 10 16 0.00 0.00
10:15 am 10:15 Sunny 76 24.2 66 18.8 72 72 WNW 5 7 29.78 1009 10 16 0.00 0.00
10:35 am 10:35 Sunny 77 24.8 66 19.1 71 71 Calm 29.78 1008 10 16 0.00 0.00
10:55 am 10:55 Sunny 80 26.5 66 18.7 62 62 SW 6 9 29.77 1008 10 16 0.00 0.00
11:15 am 11:15 Sunny 82 27.9 66 18.7 57 57 SSW 5 7 29.75 1008 10 16 0.00 0.00
11:35 am 11:35 Sunny 83 28.2 66 19 57 57 SW 7 11 29.75 1008 10 16 0.00 0.00
11:55 am 11:55 Sunny 83 28.6 66 18.9 56 56 SW 9 15 29.75 1007 10 16 0.00 0.00
12:15 pm 12:15 Sunny 85 29.3 65 18.6 53 53 SSW 8 13 29.74 1007 10 16 0.00 0.00
12:35 pm 12:35 Sunny 86 30 65 18.6 50 50 SSW 10 17 29.74 1007 10 16 0.00 0.00
12:55 pm 12:55 Sunny 86 30.1 66 19.1 52 52 SSW 12 19 29.74 1007 10 16 0.00 0.00
1:15 pm 13:15 Sunny 86 30.1 66 19 51 51 SW 6 9 29.73 1007 10 16 0.00 0.00
1:35 pm 13:35 Sunny 87 30.8 64 18 46 46 SW 9 15 29.72 1006 10 16 0.00 0.00
1:55 pm 13:55 Sunny 87 30.8 65 18.4 48 48 SW 7 11 29.72 1006 10 16 0.00 0.00
2:15 pm 14:15 Sunny 89 31.4 65 18.6 47 47 SSW 8 13 29.72 1006 10 16 0.00 0.00
2:35 pm 14:35 Sunny 89 31.6 63 17.4 43 43 SSW 7 11 29.72 1006 10 16 0.00 0.00
2:55 pm 14:55 Sunny 90 32 61 16.2 39 39 SSW 5 7 29.70 1006 10 16 0.00 0.00
3:15 pm 15:15 Sunny 90 32.3 61 16 37 37 SW 7 11 29.70 1006 10 16 0.00 0.00
3:35 pm 15:35 Sunny 90 32.3 62 16.6 39 39 Calm 29.70 1006 10 16 0.00 0.00
3:55 pm 15:55 Sunny 91 33 60 15.7 35 35 SW 6 9 29.69 1005 10 16 0.00 0.00
4:15 pm 16:15 Sunny 91 33 60 15.7 35 35 S 6 9 29.68 1005 10 16 0.00 0.00
4:35 pm 16:35 Sunny 91 32.7 62 16.8 39 39 SE 3 6 29.68 1005 10 16 0.00 0.00
4:55 pm 16:55 Sunny 91 32.5 61 15.9 37 37 Calm 29.67 1005 10 16 0.00 0.00
5:15 pm 17:15 Sunny 91 32.8 61 16.1 37 37 Calm 29.67 1005 10 16 0.00 0.00
5:35 pm 17:35 Sunny 91 32.7 62 16.9 39 39 Calm 29.66 1004 10 16 0.00 0.00
5:55 pm 17:55 Sunny 91 32.6 64 18 42 42 E 3 6 29.66 1004 10 16 0.00 0.00
6:15 pm 18:15 Sunny 89 31.8 70 20.9 52 52 NE 3 6 29.66 1005 10 16 0.00 0.00
6:35 pm 18:35 Sunny 87 30.8 72 22 59 59 ENE 6 9 29.67 1005 10 16 0.00 0.00
6:55 pm 18:55 Sunny 86 30.1 73 23 66 66 E 6 9 29.68 1005 10 16 0.00 0.00
7:15 pm 19:15 Partly Cloudy 85 29.7 72 22.1 64 64 E 8 13 29.69 1005 10 16 0.00 0.00
7:35 pm 19:35 Mostly Cloudy 85 29.2 72 22.2 66 66 E 8 13 29.69 1006 10 16 0.00 0.00
7:55 pm 19:55 Mostly Cloudy 83 28.3 70 21.3 66 66 E 7 11 29.70 1006 10 16 0.00 0.00
8:15 pm 20:15 Mostly Cloudy 81 27 71 21.5 72 72 E 8 13 29.71 1006 10 16 0.00 0.00
8:35 pm 20:35 Mostly Cloudy 80 26.8 70 21 71 71 E 5 7 29.71 1006 10 16 0.00 0.00
8:55 pm 20:55 Partly Cloudy 79 26.2 70 21.3 74 74 E 6 9 29.73 1007 10 16 0.00 0.00
9:15 pm 21:15 Mostly Cloudy 79 25.9 70 21.1 75 75 ESE 8 13 29.73 1007 10 16 0.00 0.00
9:35 pm 21:35 Mostly Cloudy 77 25 70 21.1 79 79 ESE 9 15 29.75 1007 10 16 0.00 0.00
9:55 pm 21:55 Partly Cloudy 76 24.6 70 21.1 81 81 ESE 9 15 29.75 1007 10 16 0.00 0.00
10:15 pm 22:15 Clear 75 24.1 69 20.6 81 81 ESE 8 13 29.75 1008 10 16 0.00 0.00
10:35 pm 22:35 Clear 74 23.5 69 20.5 83 83 ESE 6 9 29.76 1008 10 16 0.00 0.00
10:55 pm 22:55 Clear 73 23 68 20.2 84 84 ESE 5 7 29.76 1008 10 16 0.00 0.00
11:15 pm 23:15 Clear 72 22 68 20.1 89 89 ESE 8 13 29.77 1008 10 16 0.00 0.00
11:35 pm 23:35 Clear 73 22.7 68 19.9 84 84 SE 8 13 29.77 1008 10 16 0.00 0.00
11:55 pm 23:55 Clear 73 22.5 67 19.5 83 83 SE 6 9 29.77 1008 10 16 0.00 0.00

Powered by AerisWeather